CW8822 Caguas PR US current weather conditions

sailwx.info

Wind from 131

Air temperature 27.8° C
Dewpoint 25.0° C

Last reported at 2014-Oct-31 13:42 UTC.
Time now 2014-Oct-31 14:13 UTC

Location: N 18°12' W 066°01'.
View on Google Maps.

See reports from other nearby stations

  
Tides and Currents Weather Stations Pressure Air Temp Water Temp Dewpoint Dewpoint Depression Visibility Wind Speed Wind Dir Waves Ship Positions
date/time (UTC)wind fromknots sea level pressurealtimeterstation pressurevisibilityair tempwater tempwave heightnotes
2014-Oct-31 13:42 131 27.8
2014-Oct-31 13:26 131 0 gusting 3 27.8
2014-Oct-31 13:11 131 27.2
2014-Oct-31 12:57 130 26.7
2014-Oct-31 12:41 131 25.6
2014-Oct-31 12:26 131 25.0
2014-Oct-31 12:10 131 25.0
2014-Oct-31 11:56 131 24.4
2014-Oct-31 11:40 100 23.9
2014-Oct-31 11:25 100 0 gusting 2 23.3
2014-Oct-31 11:11 100 23.3
2014-Oct-31 10:55 100 23.3
2014-Oct-31 10:40 100 23.3
2014-Oct-31 10:26 092 23.3
2014-Oct-31 10:09 092 22.8
2014-Oct-31 09:55 092 23.3
2014-Oct-31 09:39 092 0 gusting 5 23.3
2014-Oct-31 09:25 158 0 gusting 1 23.3
2014-Oct-31 09:10 158 23.3
2014-Oct-31 08:54 158 23.3
2014-Oct-31 08:39 158 23.3
2014-Oct-31 08:25 158 23.3
2014-Oct-31 08:10 158 23.3
2014-Oct-31 07:54 158 23.3
2014-Oct-31 07:39 158 23.3
2014-Oct-31 07:25 158 23.3
2014-Oct-31 07:10 158 23.3
2014-Oct-31 06:54 158 23.3
2014-Oct-31 06:39 135 1 gusting 3 23.3
2014-Oct-31 06:24 132 23.9
2014-Oct-31 06:08 132 23.9
2014-Oct-31 05:53 132 23.9
2014-Oct-31 05:39 132 23.9
2014-Oct-31 05:24 132 23.9
2014-Oct-31 05:08 132 23.9
2014-Oct-31 04:53 138 2 gusting 6 23.9
2014-Oct-31 04:39 320 0 gusting 2 23.9
2014-Oct-31 04:23 320 23.9
2014-Oct-31 04:08 320 23.9
2014-Oct-31 03:53 320 0 gusting 3 23.9
2014-Oct-31 03:39 320 24.4
2014-Oct-31 03:22 320 24.4
2014-Oct-31 03:08 320 24.4
2014-Oct-31 02:53 320 24.4
2014-Oct-31 02:39 320 23.9
2014-Oct-31 02:22 320 24.4
2014-Oct-31 02:07 320 24.4
2014-Oct-31 01:52 320 24.4
2014-Oct-31 01:38 320 23.9
2014-Oct-31 01:22 320 0 gusting 1 24.4
2014-Oct-31 01:07 320 24.4
2014-Oct-31 00:52 320 24.4
2014-Oct-31 00:37 320 24.4
2014-Oct-31 00:22 320 25.0
2014-Oct-31 00:09 320 25.0
2014-Oct-30 23:53 320 0 gusting 2 25.6
2014-Oct-30 23:37 320 25.6
2014-Oct-30 23:21 320 25.6
2014-Oct-30 23:06 320 25.6
2014-Oct-30 22:52 320 25.0
2014-Oct-30 22:37 320 25.6
2014-Oct-30 22:22 320 25.6
2014-Oct-30 22:06 320 25.6
2014-Oct-30 21:51 320 25.6
2014-Oct-30 21:36 320 26.1
2014-Oct-30 21:22 320 25.6
2014-Oct-30 21:06 320 26.1
2014-Oct-30 20:52 320 26.1
2014-Oct-30 20:37 320 26.1
2014-Oct-30 20:21 279 25.6
2014-Oct-30 20:06 288 25.6
2014-Oct-30 19:52 288 25.6
2014-Oct-30 19:35 288 26.1
2014-Oct-30 19:21 275 0 gusting 3 26.1
2014-Oct-30 19:06 246 26.1
2014-Oct-30 18:51 246 0 gusting 3 26.1
2014-Oct-30 18:35 212 2 gusting 6 26.7
2014-Oct-30 18:21 123 1 gusting 5 28.3
2014-Oct-30 18:06 134 2 gusting 6 28.3
2014-Oct-30 17:51 191 29.4
2014-Oct-30 17:35 145 2 gusting 6 29.4
2014-Oct-30 17:21 042 29.4
2014-Oct-30 17:06 128 29.4
2014-Oct-30 16:50 166 29.4
2014-Oct-30 16:36 300 1 gusting 4 30.0
2014-Oct-30 16:20 174 1 gusting 4 30.0
2014-Oct-30 16:05 269 0 gusting 4 30.0
2014-Oct-30 15:51 286 30.0
2014-Oct-30 15:34 005 30.0
2014-Oct-30 15:20 312 1 gusting 4 28.9
2014-Oct-30 15:04 291 28.9
2014-Oct-30 14:50 246 28.9
2014-Oct-30 14:35 246 0 gusting 5 27.2
2014-Oct-30 14:19 304 27.8
2014-Oct-30 14:04 061 28.9
2014-Oct-30 13:50 061 0 gusting 3 28.3
2014-Oct-30 13:34 170 27.8
2014-Oct-30 13:18 170 27.2
2014-Oct-30 13:04 170 26.7
2014-Oct-30 12:48 170 26.1
2014-Oct-30 12:34 170 25.6
2014-Oct-30 12:19 213 25.6
2014-Oct-30 12:03 213 25.0
2014-Oct-30 11:49 213 24.4
2014-Oct-30 11:33 213 0 gusting 5 23.9
2014-Oct-30 11:18 216 0 gusting 5 23.9
2014-Oct-30 11:02 229 0 gusting 3 23.3
2014-Oct-30 10:48 158 23.3
2014-Oct-30 10:32 217 0 gusting 3 23.3
2014-Oct-30 10:18 217 1 gusting 4 23.3
2014-Oct-30 10:03 217 1 gusting 6 23.3
2014-Oct-30 09:47 238 1 gusting 3 23.3
2014-Oct-30 09:33 238 0 gusting 3 23.3
2014-Oct-30 09:17 021 0 gusting 2 23.3
2014-Oct-30 09:02 024 1 gusting 4 23.3
2014-Oct-30 08:48 231 0 gusting 3 23.3
2014-Oct-30 08:34 231 1 gusting 4 23.3
2014-Oct-30 08:18 231 23.3
2014-Oct-30 08:02 231 0 gusting 4 23.3
2014-Oct-30 07:47 231 0 gusting 1 23.3
2014-Oct-30 07:31 231 0 gusting 3 23.3
2014-Oct-30 07:18 231 0 gusting 3 23.3
2014-Oct-30 07:02 231 0 gusting 3 23.3
2014-Oct-30 06:47 231 0 gusting 3 23.3
2014-Oct-30 06:31 231 23.3
2014-Oct-30 06:16 019 0 gusting 2 23.3
2014-Oct-30 06:02 019 23.9
2014-Oct-30 05:46 019 0 gusting 2 23.9
2014-Oct-30 05:31 019 0 gusting 2 23.9
2014-Oct-30 05:17 019 0 gusting 3 23.9
2014-Oct-30 05:01 019 0 gusting 3 23.3
2014-Oct-30 04:46 019 1 gusting 4 23.9
2014-Oct-30 04:32 019 0 gusting 2 23.9
2014-Oct-30 04:16 019 23.9
2014-Oct-30 04:01 019 0 gusting 2 23.9
2014-Oct-30 03:45 019 23.3
2014-Oct-30 03:31 019 23.9
2014-Oct-30 03:16 019 23.9
2014-Oct-30 03:00 019 24.4
2014-Oct-30 02:45 019 24.4
2014-Oct-30 02:31 019 24.4
2014-Oct-30 02:16 019 24.4
2014-Oct-30 02:00 019 0 gusting 2 24.4
2014-Oct-30 01:45 019 24.4
2014-Oct-30 01:31 019 24.4
2014-Oct-30 01:15 019 25.0
2014-Oct-30 00:45 355 25.0
2014-Oct-30 00:31 355 25.0
2014-Oct-30 00:14 355 25.0
2014-Oct-30 00:00 355 25.0
2014-Oct-29 23:45 355 25.0
2014-Oct-29 23:29 355 25.0
2014-Oct-29 23:14 355 25.0
2014-Oct-29 22:59 355 25.0
2014-Oct-29 22:44 355 25.0
2014-Oct-29 22:29 355 25.6
2014-Oct-29 22:14 013 25.6
2014-Oct-29 21:59 013 25.6
2014-Oct-29 21:44 015 1 gusting 5 25.6
2014-Oct-29 21:29 346 0 gusting 3 26.1
2014-Oct-29 21:14 022 26.1
2014-Oct-29 20:59 360 4 gusting 9 26.7
2014-Oct-29 20:44 325 1 gusting 8 27.2
2014-Oct-29 20:29 029 27.8
2014-Oct-29 20:14 300 3 gusting 11 27.8
2014-Oct-29 19:59 292 1 gusting 6 28.3
2014-Oct-29 19:44 348 0 gusting 4 27.2
2014-Oct-29 19:29 076 0 gusting 6 26.7
2014-Oct-29 19:14 062 1 gusting 8 27.2
2014-Oct-29 18:59 355 4 gusting 10 28.9
2014-Oct-29 18:43 040 29.4
2014-Oct-29 18:28 312 2 gusting 9 28.9
2014-Oct-29 18:13 040 0 gusting 5 28.3
2014-Oct-29 17:58 025 0 gusting 7 27.8
2014-Oct-29 17:43 055 1 gusting 6 27.8
2014-Oct-29 17:28 072 3 gusting 9 27.8
2014-Oct-29 17:13 018 4 gusting 7 28.9
2014-Oct-29 16:58 319 2 gusting 7 28.9
2014-Oct-29 16:43 315 3 gusting 11 28.3
2014-Oct-29 16:28 071 2 gusting 8 28.9
2014-Oct-29 16:13 029 1 gusting 8 28.9
2014-Oct-29 15:58 064 0 gusting 10 28.3
2014-Oct-29 15:43 034 1 gusting 8 29.4
2014-Oct-29 15:28 355 1 gusting 8 28.3
2014-Oct-29 15:13 321 3 gusting 9 28.3
2014-Oct-29 14:58 034 3 gusting 7 28.3
2014-Oct-29 14:43 346 1 gusting 5 28.3
2014-Oct-29 14:28 297 1 gusting 5 27.8
2014-Oct-29 14:13 308 1 gusting 5 28.9